Flag for Montenegro Weather past 2 weeks in Podgorica, Montenegro

Now
59 °F

Clear.


Feels Like: 59 °F
Forecast: 49 / 70 °F
Wind: 1 mph from North

Location: Podgorica Titograd

Current Time: Apr 26, 2015 at 11:13:00 PM

Latest Report: Apr 26, 2015 at 10:30 PM


Visibility: 10 mi

Pressure: 29.95 "Hg

Humidity: 59%

Dew point: 45 °F

Location of PodgoricaLocation

Historic Weather in Podgorica — Graph

°F

Podgorica temperature yesterday

Maximum temperature yesterday: 72 °F (at 3:00 PM)
Minimum temperature yesterday: 48 °F (at 6:00 AM)
Average temperature yesterday: 60 °F

Past Weeks' High & Low Weather Summary

 TemperatureHumidityPressure
High77 °F (Apr 13, 1:30 PM)100% (Apr 24, 5:30 PM)30.33 "Hg (Apr 24, 5:30 PM)
Low45 °F (Apr 12, 4:30 AM)16% (Apr 21, 4:00 PM)29.86 "Hg (Apr 18, 4:30 PM)
Average60 °F53%30.10 "Hg
* Reported Apr 11 10:00 PM — Apr 26 10:00 PM, Podgorica, Weather by CustomWeather, © 2015

Note: Actual official high and low records may vary slightly from our data, if they occured in-between our weather recording intervals... More about our weather records

Advertising

Podgorica weather history for previous 24 hours

 ConditionsComfort  
Time TempWeatherWind HumidityBarometerVisibility
10:00 PM
Sun, Apr 26
61 °FClear.No wind59%29.95 "Hg10 mi
9:30 PM61 °FClear.2 mph63%29.95 "Hg10 mi
9:00 PM63 °FClear.2 mph59%29.95 "Hg10 mi
8:30 PM63 °FPassing clouds.3 mph64%29.95 "HgN/A
8:00 PM64 °FPassing clouds.5 mph60%29.92 "HgN/A
7:30 PM66 °FPassing clouds.3 mph56%29.92 "HgN/A
7:00 PM68 °FPassing clouds.5 mph49%29.92 "HgN/A
6:30 PM70 °FPassing clouds.6 mph40%29.92 "HgN/A
6:00 PM72 °FPassing clouds.5 mph38%29.92 "HgN/A
5:30 PM72 °FPassing clouds.3 mph38%29.92 "HgN/A
5:00 PM73 °FPassing clouds.3 mph38%29.92 "HgN/A
4:30 PM73 °FPassing clouds.3 mph36%29.92 "HgN/A
4:00 PM72 °FPassing clouds.5 mph38%29.92 "HgN/A
3:30 PM72 °FPassing clouds.6 mph38%29.92 "HgN/A
3:00 PM70 °FPassing clouds.8 mph38%29.95 "HgN/A
2:30 PM70 °FPassing clouds.8 mph38%29.95 "HgN/A
2:00 PM70 °FPassing clouds.7 mph40%29.95 "HgN/A
1:30 PM70 °FPassing clouds.6 mph40%29.98 "HgN/A
1:00 PM70 °FPassing clouds.5 mph43%29.98 "HgN/A
12:30 PM70 °FPassing clouds.3 mph46%29.98 "HgN/A
12:00 PM68 °FPassing clouds.3 mph46%29.98 "HgN/A
11:30 AM68 °FPassing clouds.3 mph46%29.98 "HgN/A
11:00 AM66 °FPassing clouds.1 mph49%30.01 "HgN/A
10:30 AM66 °FPassing clouds.2 mph49%30.01 "HgN/A
10:00 AM64 °FPassing clouds.1 mph52%30.01 "HgN/A
9:30 AM64 °FPassing clouds.1 mph52%30.01 "HgN/A
9:00 AM61 °FPassing clouds.3 mph59%30.01 "HgN/A
8:30 AM59 °FSunny.3 mph63%30.01 "Hg10 mi
8:00 AM57 °FSunny.5 mph67%30.01 "Hg10 mi
7:30 AM55 °FPassing clouds.3 mph77%30.01 "HgN/A
7:00 AM50 °FPassing clouds.3 mph88%30.01 "HgN/A
6:30 AM50 °FPassing clouds.2 mph88%30.01 "HgN/A
6:00 AM50 °FClear.2 mph88%30.01 "Hg10 mi
5:30 AM50 °FClear.1 mph88%30.01 "Hg10 mi
5:00 AM50 °FClear.3 mph88%30.01 "Hg10 mi
4:30 AM50 °FClear.5 mph88%30.01 "Hg10 mi
4:00 AM50 °FClear.3 mph88%30.01 "Hg10 mi
3:30 AM52 °FClear.2 mph82%30.01 "Hg10 mi
3:00 AM50 °FPassing clouds.5 mph88%30.01 "HgN/A
2:30 AM52 °FClear.2 mph82%30.01 "Hg10 mi
2:00 AM54 °FClear.6 mph77%30.04 "Hg10 mi
1:30 AM54 °FClear.5 mph82%30.04 "Hg10 mi
1:00 AM54 °FPassing clouds.7 mph82%30.04 "HgN/A
12:30 AM54 °FClear.3 mph82%30.04 "Hg10 mi
12:00 AM54 °FClear.2 mph82%30.04 "Hg10 mi
11:00 PM
Sat, Apr 25
57 °FPassing clouds.3 mph72%30.01 "HgN/A
Weather by CustomWeather, © 2015

See weather overviewHow to use our weather pages